Regional Weather Roundup
Issued by NWS

Home | Current Version | Previous Version | Text Only | Print | Product List | Glossary Off
Versions: 1 2 3 4 5 6 7 8 9 10 11 12 13 14 15 16 17 18 19 20 21 22 23 24 25 26 27 28

000
ASUS45 KCYS 210910
RWRWY

WYOMING REGIONAL WEATHER ROUNDUP
NATIONAL WEATHER SERVICE CHEYENNE WY
300 AM MDT MON MAY 21 2018

NOTE:  "FAIR" INDICATES FEW OR NO CLOUDS BELOW 12,000 FEET
WITH NO SIGNIFICANT WEATHER AND/OR OBSTRUCTIONS TO VISIBILITY.

WYZ001-211000-
YELLOWSTONE NATIONAL PARK

CITY           SKY/WX    TMP DP  RH WIND       PRES   REMARKS
LK YELLOWSTONE   N/A     34  33  96 CALM      30.14F
W YELLOWSTONE  NOT AVBL

$$
WYZ002>013-054>058-071-098>099-211000-
NORTHERN WYOMING

CITY           SKY/WX    TMP DP  RH WIND       PRES   REMARKS
JACKSON        CLOUDY    45  42  89 NE3       30.06F
CODY           FAIR      57  41  55 VRB5      29.97S
GREYBULL       FAIR      53  46  77 W6        29.92R
WORLAND        FAIR      51  47  86 CALM      29.92S
SHERIDAN       FAIR      45  43  93 S5        29.93R
BUFFALO        FAIR      44  43  96 CALM      29.96S
GILLETTE       FAIR      47  37  68 S18G26    29.97F
NEWCASTLE      FAIR      48  34  57 E9        30.04S

$$
WYZ014>020-022>026-101>103-211000-
CENTRAL WYOMING

CITY           SKY/WX    TMP DP  RH WIND       PRES   REMARKS
BIG PINEY      FAIR      40  38  93 CALM      30.07F
PINEDALE       FAIR      39  37  93 NW3       30.09S
DUBOIS         FAIR      43  37  81 W6        30.07S
LANDER         FAIR      49  40  71 W12       29.97F
RIVERTON       FAIR      49  46  90 NW10      29.98F
CASPER         FAIR      45  43  93 CALM      29.99F
DOUGLAS        FAIR      44  43  96 SE10      30.00F

$$
WYZ021-027>030-104>119-211000-
SOUTHERN WYOMING

CITY           SKY/WX    TMP DP  RH WIND       PRES   REMARKS
EVANSTON       FAIR      46  39  76 CALM      30.05S
KEMMERER       FAIR      41  36  81 N10       30.07S
FORT BRIDGER   FAIR      46  37  71 W7        30.08S
ROCK SPRINGS   FAIR      48  38  68 S12       30.04F
DIXON          FAIR      44  40  85 E8        30.09F
RAWLINS        FAIR      46  39  76 CALM      30.06F
SARATOGA       FAIR      45  37  76 SE12      30.08S
LARAMIE        FAIR      34  33  96 SW3       30.07F
CHEYENNE       FAIR      43  42  97 S6        30.06F
TORRINGTON     FAIR      46  46 100 SE10      30.02F
PINE BLUFFS    FAIR      43  43 100 S7        30.05F

$$




USA.gov is the U.S. government's official web portal to all federal, state and local government web resources and services.